EW3154 Weather Reports


time (UTC)temp
C
wind
direction
speed
KPH
gust
KPH
rain 1hr
cm
rain 24hr
cm
rain mn
cm
humidity
%
barometer
mb
20260505073027 14 106 0.0 0.0 0.00 0.00 0.00 75 1013.4
20260505071533 13 108 0.0 1.6 0.00 0.00 0.00 76 1013.4
20260505070020 13 103 0.0 6.4 0.00 0.00 0.00 76 1013.4
20260505064518 13 107 0.0 0.0 0.00 0.00 0.00 77 1013.5
20260505063026 13 23 0.0 0.0 0.00 0.00 0.00 82 1013.6
20260505061515 12 23 0.0 0.0 0.00 0.00 0.00 81 1013.5
20260505060010 12 23 0.0 0.0 0.00 0.00 0.00 77 1013.7
20260505054507 11 23 0.0 0.0 0.00 0.00 0.00 83 1013.7
20260505053002 10 116 0.0 0.0 0.00 0.00 0.00 88 1013.6
20260505051558 8 116 0.0 0.0 0.00 0.00 0.00 93 1013.7
20260505041550 4 116 0.0 0.0 0.00 0.00 0.00 94 1013.8
20260505040044 5 116 0.0 0.0 0.00 0.00 0.00 94 1013.7
20260505034539 5 116 0.0 0.0 0.00 0.00 0.00 93 1013.6
20260505033037 5 116 0.0 0.0 0.00 0.00 0.00 93 1013.6
20260505031538 5 116 0.0 0.0 0.00 0.00 0.00 92 1013.9
20260505030036 6 116 0.0 0.0 0.00 0.00 0.00 92 1014.2
20260505024529 6 116 0.0 0.0 0.00 0.00 0.00 91 1014.2
20260505023027 6 116 0.0 0.0 0.00 0.00 0.00 91 1014.2
20260505021525 6 116 0.0 0.0 0.00 0.00 0.00 90 1014.3
20260505020022 7 116 0.0 0.0 0.00 0.00 0.00 89 1014.4
20260505014522 7 116 0.0 0.0 0.00 0.00 0.00 88 1014.4
20260505013018 7 116 0.0 0.0 0.00 0.00 0.00 88 1014.5
20260505011516 8 116 0.0 0.0 0.00 0.00 0.00 88 1014.5
20260505010015 8 116 0.0 0.0 0.00 0.00 0.00 86 1014.6
20260505004512 8 116 0.0 0.0 0.00 0.00 0.00 86 1014.6
20260505003009 8 116 0.0 0.0 0.00 0.00 0.00 85 1014.8
20260505001507 9 116 0.0 0.0 0.00 0.00 0.00 85 1015.0
20260505000005 10 116 0.0 0.0 0.00 0.00 0.00 84 1015.1
20260504234501 10 116 0.0 0.0 0.00 0.00 0.00 84 1015.2
20260504233109 10 116 0.0 0.0 0.00 0.00 0.00 83 1015.4
20260504231557 10 116 0.0 0.0 0.00 0.00 0.00 83 1015.5
20260504230113 10 116 0.0 0.0 0.00 0.00 0.00 83 1015.5
20260504224611 11 116 0.0 0.0 0.00 0.00 0.00 82 1015.6
20260504223051 11 116 0.0 0.0 0.00 0.00 0.00 81 1015.7
20260504221550 11 116 0.0 0.0 0.00 0.00 0.00 80 1015.7
20260504220056 11 116 0.0 0.0 0.00 0.00 0.00 79 1015.7
20260504214548 11 116 0.0 0.0 0.00 0.00 0.00 80 1015.8
20260504213047 11 116 0.0 0.0 0.00 0.00 0.00 79 1015.9
20260504211549 12 116 0.0 0.0 0.00 0.00 0.00 79 1016.0
20260504210059 12 116 0.0 0.0 0.00 0.00 0.00 78 1016.0
20260504204549 12 116 0.0 0.0 0.00 0.00 0.00 77 1016.0
20260504203046 12 116 0.0 0.0 0.00 0.00 0.00 78 1016.0
20260504201548 13 116 0.0 0.0 0.00 0.00 0.00 77 1016.0
20260504200052 13 116 0.0 0.0 0.00 0.00 0.00 76 1015.8
20260504194543 13 116 0.0 0.0 0.00 0.00 0.00 72 1015.7
20260504193044 13 116 0.0 0.0 0.00 0.00 0.00 75 1015.7
20260504191545 14 116 0.0 0.0 0.00 0.00 0.00 74 1015.6
20260504190041 15 116 0.0 0.0 0.00 0.00 0.00 73 1015.4
20260504184541 15 116 0.0 0.0 0.00 0.00 0.00 70 1015.2
20260504183039 16 116 0.0 0.0 0.00 0.00 0.00 68 1015.1
20260504181539 17 116 0.0 0.0 0.00 0.00 0.00 66 1015.1
20260504180038 17 116 0.0 0.0 0.00 0.00 0.00 65 1014.9
20260504174538 18 116 0.0 0.0 0.00 0.00 0.00 64 1014.9
20260504173037 19 116 0.0 0.0 0.00 0.00 0.00 59 1014.8
20260504171538 19 116 0.0 0.0 0.00 0.00 0.00 53 1014.8
20260504081536 18 304 0.0 4.8 0.00 0.00 0.00 62 1017.5